When you browse on this site, cookies collect data to enhance your experience and personalize the content and advertising you see.
Visit our Privacy Policy to learn more. By continuing to use the site, you agree to this use of cookies and data.
  • In Deutschland
  • Länderverzeichnis
  • Für 7 Tage
  • Wassertemperatur
  • Satellitenkarten
  • Wetterkarte
  • Widgets
  • user-avatar
    Anmelden

    Stündliche Wetter Escaldes-Engordany

    Heute, 26 März, Dienstag

    Zeit Temperatur Niederschläge Wind Luftdruck Luftfeuchtigkeit
    00:00 -1°C° 0 mm 4 m/S 639 mmHg 83%
    01:00 -2°C° 0 mm 4 m/S 639 mmHg 82%
    02:00 -2°C° 0 mm 4 m/S 639 mmHg 82%
    03:00 -2°C° 0 mm 3 m/S 639 mmHg 81%
    04:00 -2°C° 0 mm 3 m/S 639 mmHg 78%
    05:00 -4°C° 0 mm 3 m/S 639 mmHg 75%
    06:00 -4°C° 0 mm 3 m/S 639 mmHg 71%
    07:00 -1°C° 0 mm 3 m/S 640 mmHg 55%
    08:00 0°C° 0 mm 4 m/S 641 mmHg 39%
    09:00 +3°C° 0 mm 4 m/S 642 mmHg 23%
    10:00 +4°C° 0 mm 4 m/S 642 mmHg 21%
    11:00 +6°C° 0 mm 4 m/S 642 mmHg 18%
    12:00 +7°C° 0 mm 4 m/S 642 mmHg 16%
    13:00 +7°C° 0 mm 4 m/S 642 mmHg 19%
    14:00 +7°C° 0 mm 4 m/S 642 mmHg 21%
    15:00 +6°C° 0 mm 4 m/S 641 mmHg 24%
    16:00 +5°C° 0 mm 3 m/S 641 mmHg 32%
    17:00 +3°C° 0 mm 3 m/S 640 mmHg 41%
    18:00 +2°C° 0 mm 2 m/S 640 mmHg 49%
    19:00 +1°C° 0 mm 2 m/S 640 mmHg 54%
    20:00 -1°C° 0 mm 2 m/S 640 mmHg 59%
    21:00 -2°C° 0 mm 2 m/S 641 mmHg 64%
    22:00 -2°C° 0 mm 2 m/S 641 mmHg 62%
    23:00 -2°C° 0 mm 2 m/S 641 mmHg 61%

    Morgen, 27 März, Mittwoch

    Zeit Temperatur Niederschläge Wind Luftdruck Luftfeuchtigkeit
    00:00 -2°C° 0 mm 2 m/S 641 mmHg 60%
    01:00 -2°C° 0 mm 2 m/S 641 mmHg 59%
    02:00 -2°C° 0 mm 2 m/S 641 mmHg 59%
    03:00 -2°C° 0 mm 2 m/S 641 mmHg 59%
    04:00 -2°C° 0 mm 2 m/S 641 mmHg 53%
    05:00 -2°C° 0 mm 2 m/S 641 mmHg 48%
    06:00 -2°C° 0 mm 2 m/S 641 mmHg 43%
    07:00 +2°C° 0 mm 2 m/S 642 mmHg 35%
    08:00 +5°C° 0 mm 2 m/S 643 mmHg 27%
    09:00 +7°C° 0 mm 2 m/S 644 mmHg 19%
    10:00 +9°C° 0 mm 2 m/S 644 mmHg 20%
    11:00 +10°C° 0 mm 2 m/S 644 mmHg 21%
    12:00 +12°C° 0 mm 2 m/S 645 mmHg 22%
    13:00 +12°C° 0 mm 2 m/S 644 mmHg 25%
    14:00 +10°C° 0 mm 2 m/S 644 mmHg 28%
    15:00 +10°C° 0 mm 2 m/S 644 mmHg 30%
    16:00 +8°C° 0 mm 2 m/S 643 mmHg 40%
    17:00 +6°C° 0 mm 2 m/S 642 mmHg 49%
    18:00 +4°C° 0 mm 2 m/S 642 mmHg 58%
    19:00 +3°C° 0 mm 2 m/S 642 mmHg 64%
    20:00 +2°C° 0 mm 2 m/S 642 mmHg 70%
    21:00 -1°C° 0 mm 2 m/S 643 mmHg 75%
    22:00 -1°C° 0 mm 2 m/S 643 mmHg 75%
    23:00 -1°C° 0 mm 2 m/S 643 mmHg 74%

    übermorgen, 28 März, Donnerstag

    Zeit Temperatur Niederschläge Wind Luftdruck Luftfeuchtigkeit
    00:00 +1°C° 0 mm 1 m/S 643 mmHg 73%
    01:00 +1°C° 0 mm 1 m/S 643 mmHg 77%
    02:00 +1°C° 0 mm 1 m/S 643 mmHg 80%
    03:00 +1°C° 0 mm 1 m/S 642 mmHg 83%
    04:00 +1°C° 0 mm 1 m/S 643 mmHg 83%
    05:00 +1°C° 0 mm 1 m/S 643 mmHg 83%
    06:00 +1°C° 0 mm 1 m/S 643 mmHg 83%
    07:00 +4°C° 0 mm 1 m/S 644 mmHg 70%
    08:00 +5°C° 0 mm 2 m/S 645 mmHg 58%
    09:00 +8°C° 0 mm 2 m/S 646 mmHg 45%
    10:00 +9°C° 0 mm 2 m/S 646 mmHg 42%
    11:00 +10°C° 0 mm 2 m/S 646 mmHg 39%
    12:00 +13°C° 0 mm 2 m/S 647 mmHg 36%
    13:00 +12°C° 0 mm 2 m/S 646 mmHg 39%
    14:00 +12°C° 0 mm 2 m/S 646 mmHg 42%
    15:00 +11°C° 0 mm 1 m/S 645 mmHg 45%
    16:00 +10°C° 0 mm 1 m/S 645 mmHg 55%
    17:00 +8°C° 0 mm 1 m/S 644 mmHg 64%
    18:00 +6°C° 0 mm 1 m/S 643 mmHg 73%
    19:00 +5°C° 0 mm 1 m/S 644 mmHg 78%
    20:00 +4°C° 0 mm 0 m/S 644 mmHg 82%
    21:00 +3°C° 0 mm 0 m/S 644 mmHg 86%
    22:00 +2°C° 0 mm 0 m/S 644 mmHg 88%
    23:00 +2°C° 0 mm 0 m/S 643 mmHg 90%

    29 März, Freitag

    Zeit Temperatur Niederschläge Wind Luftdruck Luftfeuchtigkeit
    00:00 +1°C° 0 mm 0 m/S 643 mmHg 91%
    01:00 +2°C° 0 mm 1 m/S 643 mmHg 91%
    02:00 +2°C° 0 mm 1 m/S 643 mmHg 91%
    03:00 +2°C° 0 mm 1 m/S 643 mmHg 92%
    04:00 +2°C° 0 mm 1 m/S 643 mmHg 91%
    05:00 +2°C° 0 mm 1 m/S 643 mmHg 91%
    06:00 +2°C° 0 mm 1 m/S 643 mmHg 91%
    07:00 +4°C° 0 mm 1 m/S 644 mmHg 78%
    08:00 +6°C° 0 mm 1 m/S 645 mmHg 65%
    09:00 +8°C° 0 mm 2 m/S 645 mmHg 53%
    10:00 +8°C° 0 mm 2 m/S 646 mmHg 48%
    11:00 +9°C° 0 mm 2 m/S 646 mmHg 44%
    12:00 +10°C° 0 mm 2 m/S 646 mmHg 39%
    13:00 +10°C° 0.1 mm 2 m/S 645 mmHg 40%
    14:00 +10°C° 0.1 mm 2 m/S 645 mmHg 40%
    15:00 +9°C° 0.1 mm 2 m/S 645 mmHg 41%
    16:00 +8°C° 0.1 mm 2 m/S 644 mmHg 46%
    17:00 +8°C° 0.1 mm 1 m/S 644 mmHg 51%
    18:00 +7°C° 0.1 mm 1 m/S 643 mmHg 56%
    19:00 +6°C° 0 mm 1 m/S 643 mmHg 62%
    20:00 +4°C° 0 mm 1 m/S 643 mmHg 67%
    21:00 +3°C° 0 mm 1 m/S 643 mmHg 73%
    22:00 +3°C° 0 mm 1 m/S 643 mmHg 71%
    23:00 +2°C° 0 mm 1 m/S 643 mmHg 70%

    30 März, Samstag

    Zeit Temperatur Niederschläge Wind Luftdruck Luftfeuchtigkeit
    00:00 +1°C° 0 mm 2 m/S 643 mmHg 69%
    01:00 -1°C° 0 mm 2 m/S 642 mmHg 63%
    02:00 -1°C° 0 mm 2 m/S 642 mmHg 57%
    03:00 -1°C° 0 mm 2 m/S 642 mmHg 51%
    04:00 -1°C° 0 mm 2 m/S 641 mmHg 48%
    05:00 -1°C° 0 mm 2 m/S 641 mmHg 45%
    06:00 -2°C° 0 mm 2 m/S 641 mmHg 42%
    07:00 +2°C° 0 mm 2 m/S 642 mmHg 37%
    08:00 +4°C° 0 mm 2 m/S 643 mmHg 31%
    09:00 +7°C° 0 mm 2 m/S 644 mmHg 26%
    10:00 +8°C° 0 mm 2 m/S 644 mmHg 25%
    11:00 +9°C° 0 mm 2 m/S 644 mmHg 24%
    12:00 +10°C° 0 mm 2 m/S 644 mmHg 24%
    13:00 +10°C° 0 mm 2 m/S 643 mmHg 25%
    14:00 +10°C° 0 mm 2 m/S 643 mmHg 27%
    15:00 +10°C° 0 mm 2 m/S 642 mmHg 29%
    16:00 +8°C° 0 mm 2 m/S 641 mmHg 39%
    17:00 +6°C° 0 mm 2 m/S 641 mmHg 48%
    18:00 +6°C° 0 mm 1 m/S 640 mmHg 57%
    19:00 +4°C° 0 mm 1 m/S 640 mmHg 65%
    20:00 +3°C° 0 mm 1 m/S 640 mmHg 74%
    21:00 +2°C° 0 mm 1 m/S 640 mmHg 82%
    22:00 +2°C° 0 mm 1 m/S 639 mmHg 83%
    23:00 +2°C° 0 mm 1 m/S 639 mmHg 84%

    31 März, Sonntag

    Zeit Temperatur Niederschläge Wind Luftdruck Luftfeuchtigkeit
    00:00 +2°C° 0 mm 1 m/S 639 mmHg 85%
    01:00 +2°C° 0 mm 1 m/S 638 mmHg 81%
    02:00 +2°C° 0 mm 1 m/S 638 mmHg 78%
    03:00 +2°C° 0 mm 1 m/S 638 mmHg 74%
    04:00 +2°C° 0 mm 1 m/S 638 mmHg 72%
    05:00 +2°C° 0 mm 1 m/S 638 mmHg 71%
    06:00 +1°C° 0 mm 0 m/S 638 mmHg 69%
    07:00 +3°C° 0 mm 0 m/S 639 mmHg 60%
    08:00 +6°C° 0 mm 0 m/S 639 mmHg 51%
    09:00 +9°C° 0 mm 0 m/S 640 mmHg 42%
    10:00 +11°C° 0 mm 1 m/S 640 mmHg 40%
    11:00 +12°C° 0 mm 1 m/S 640 mmHg 38%
    12:00 +13°C° 0 mm 1 m/S 640 mmHg 36%
    13:00 +12°C° 0 mm 1 m/S 640 mmHg 39%
    14:00 +12°C° 0 mm 1 m/S 639 mmHg 42%
    15:00 +11°C° 0 mm 1 m/S 638 mmHg 45%
    16:00 +10°C° 0.1 mm 1 m/S 638 mmHg 53%
    17:00 +8°C° 0.1 mm 1 m/S 637 mmHg 61%
    18:00 +6°C° 0.1 mm 0 m/S 637 mmHg 69%
    19:00 +5°C° 0 mm 0 m/S 637 mmHg 75%
    20:00 +3°C° 0 mm 0 m/S 637 mmHg 81%
    21:00 +2°C° 0 mm 0 m/S 637 mmHg 87%
    22:00 +2°C° 0 mm 0 m/S 636 mmHg 86%
    23:00 +3°C° 0 mm 1 m/S 636 mmHg 85%
    Mehr zeigen